This is the latest recevied weather packets stored in our database for station/object DH1BUZ-12. If no packets are shown the sender has not sent any weather packets the latest 10 day(s).
| Time | Temp. | Humidity | Pressure | Rain* | Wind** | Luminosity | Snow |
|---|---|---|---|---|---|---|---|
| 1778234666 | 16.11° C | 50% | 1018 hPa | - | - | - | - |
| 1778234600 | 16.67° C | 53% | 1018 hPa | - | - | - | - |
| 1778234534 | 16.67° C | 53% | 1018 hPa | - | - | - | - |
| 1778234469 | 16.67° C | 53% | 1018 hPa | - | - | - | - |
| 1778234403 | 16.67° C | 52% | 1018 hPa | - | - | - | - |
| 1778234338 | 17.22° C | 49% | 1018 hPa | - | - | - | - |
| 1778234272 | 17.22° C | 50% | 1018 hPa | - | - | - | - |
| 1778234207 | 17.22° C | 53% | 1018 hPa | - | - | - | - |
| 1778234141 | 16.67° C | 53% | 1018 hPa | - | - | - | - |
| 1778234076 | 16.11° C | 54% | 1018 hPa | - | - | - | - |
| 1778234010 | 16.11° C | 55% | 1018 hPa | - | - | - | - |
| 1778233944 | 15.56° C | 56% | 1018 hPa | - | - | - | - |
| 1778233879 | 15.56° C | 57% | 1018 hPa | - | - | - | - |
| 1778233813 | 15° C | 55% | 1018 hPa | - | - | - | - |
| 1778233748 | 15° C | 60% | 1018 hPa | - | - | - | - |
| 1778233682 | 14.44° C | 59% | 1018 hPa | - | - | - | - |
| 1778233617 | 13.89° C | 59% | 1018 hPa | - | - | - | - |
| 1778233551 | 13.89° C | 63% | 1018 hPa | - | - | - | - |
| 1778233485 | 13.89° C | 62% | 1018 hPa | - | - | - | - |
| 1778233420 | 13.89° C | 61% | 1018 hPa | - | - | - | - |
| 1778233354 | 13.89° C | 61% | 1018 hPa | - | - | - | - |
| 1778233289 | 13.89° C | 60% | 1018 hPa | - | - | - | - |
| 1778233223 | 13.89° C | 61% | 1018 hPa | - | - | - | - |
| 1778233157 | 13.89° C | 61% | 1018 hPa | - | - | - | - |
| 1778233092 | 13.33° C | 61% | 1018 hPa | - | - | - | - |
* Rain since midnight (hover to see other rain measurements)
** Current wind speed in m/s (hover to see current wind gust speed)